Content
SEND FEEDBACK

Daily
Averages
Monthly
Summary
United States of America

MERIZO, GUAM


Home > North America > United States > Guam
Elevation: 3 meters     Latitude: 13 14N     Longitude: 144 39E

WEATHER
 
SELECT A DAY
Number of Records: 354,701;   Date Range: 1/1/95 - 11/26/14
 
SHARE

PRINT THIS DATA

[ ← Previous Day ]
WEATHER ALMANAC - 18 SEPTEMBER, 2013
[ Next Day → ]
[ °F ]   °C
Weather ElementAverageHighLow
Temperature26.7 °C30 °C (12:26 pm)24.7 °C (4:58 am)
Dewpoint24.8 °C26 °C (9:10 am)22.7 °C (9:58 am)
Humidity89.5 %100 % (1:58 am)74 % (12:26 pm)
Barometer1001.7 hPa1004.1 hPa (12:48 am)997 hPa (2:58 pm)
Wind Speed19.5 km/h29.6 km/h (3:13 pm)
Wind Gust35.2 km/h (2:58 pm)
Weather ElementAverage
Visibility15 km
Wind DirectionNW (311.1 °)

Weather ElementTotal
Precipitation6.86 mm
Cooling Degree Days9.1 (Base 18.3)
Growing Degree Days17.4 (Base 10)
Averaged from 119 records on 18 September, 2013
WEATHER CONDITIONS BREAKOUT
WIND DIRECTION BREAKOUT
WEATHER BY HOUR - 18 SEPTEMBER, 2013
[ °F ]   °C
Local TimeTemperatureDewpointHumidityBarometerVisibilityWind DirectionWind SpeedGust SpeedPrecipitationEventsConditions
12:48 AM26 °C25 °C94 %1004.1 hPa16.1 kmVariable9.3 km/h29.6 km/hMostly Cloudy
12:49 AM26 °C25 °C94 %1004.1 hPa8 kmNNE (20°)14.8 km/h29.6 km/hRainLight Rain
12:54 AM26 °C25 °C94 %1004.1 hPa4 kmVariable9.3 km/h29.6 km/hRainLight Rain
12:58 AM26 °C24 °C89 %999.7 hPa4 kmNNW (340°)13 km/h0 mmRainRain
1:03 AM26 °C25 °C94 %1004.1 hPa11.3 kmNNW (340°)13 km/hRainLight Rain
1:08 AM26 °C25 °C94 %1003.7 hPa16.1 kmNNW (330°)13 km/hLight Drizzle
1:09 AM26 °C25 °C94 %1003.7 hPa16.1 kmNNW (340°)13 km/hMostly Cloudy
1:29 AM26 °C24 °C89 %1003.4 hPa16.1 kmNNW (340°)13 km/hMostly Cloudy
1:44 AM26 °C25 °C94 %1003.4 hPa14.5 kmNNW (330°)25.9 km/h33.3 km/hRainLight Rain
1:49 AM26 °C25 °C94 %1003.4 hPa4 kmNNW (340°)14.8 km/h33.3 km/hRainHeavy Rain
1:54 AM26 °C25 °C94 %1003.4 hPa4 kmNorth (360°)14.8 km/h33.3 km/hRainRain
1:58 AM25 °C25 °C100 %999.3 hPa4.8 kmNorth (350°)13 km/h2.29 mmRainLight Rain
2:03 AM25 °C25 °C100 %1003.4 hPa16.1 kmNNW (330°)11.1 km/hRainLight Rain
2:04 AM25 °C25 °C100 %1003 hPa16.1 kmNNW (330°)11.1 km/hOvercast
2:09 AM25 °C24 °C94 %1003 hPa16.1 kmNW (320°)11.1 km/hOvercast
2:58 AM24.9 °C23.9 °C94 %999 hPa16.1 kmWNW (290°)7.4 km/h0 mmClear
3:58 AM24.8 °C24.3 °C97 %998.6 hPa16.1 kmWSW (250°)7.4 km/hClear
4:19 AM25 °C24 °C94 %1002.7 hPa14.5 kmWSW (250°)9.3 km/hRainLight Rain
4:39 AM25 °C24 °C94 %1002.7 hPa9.7 kmWest (280°)11.1 km/hRain-ThunderstormLight Rain
4:42 AM25 °C24 °C94 %1002.7 hPa14.5 kmWest (270°)11.1 km/hThunderstormScattered Clouds
4:55 AM25 °C24 °C94 %1002.7 hPa12.9 kmNW (310°)16.7 km/hRainLight Rain
4:58 AM24.7 °C24.3 °C98 %998.6 hPa11.3 kmNW (320°)14.8 km/h0.51 mmRainLight Rain
5:11 AM25 °C24 °C94 %1002.7 hPa16.1 kmNW (310°)13 km/hMostly Cloudy
5:16 AM25 °C24 °C94 %1002.7 hPa16.1 kmWNW (300°)11.1 km/hMostly Cloudy
5:21 AM25 °C24 °C94 %1002.7 hPa16.1 kmWNW (300°)13 km/hMostly Cloudy
5:36 AM25 °C25 °C100 %1002.7 hPa16.1 kmWNW (300°)13 km/hMostly Cloudy
5:46 AM25 °C24 °C94 %1002.7 hPa16.1 kmWNW (300°)14.8 km/hMostly Cloudy
5:50 AM25 °C25 °C100 %1002.7 hPa16.1 kmWNW (300°)14.8 km/hRainLight Rain
5:55 AM25 °C25 °C100 %1002.7 hPa16.1 kmNW (320°)14.8 km/hRainLight Rain
5:58 AM25.4 °C24.5 °C95 %998.6 hPa16.1 kmNNW (330°)16.7 km/h0.76 mmRainLight Rain
6:00 AM26 °C25 °C94 %1002.7 hPa16.1 kmNNW (330°)16.7 km/hScattered Clouds
6:08 AM26 °C25 °C94 %1002.7 hPa14.5 kmNW (310°)16.7 km/hRainLight Rain
6:18 AM25 °C24 °C94 %1003 hPa8 kmNW (320°)16.7 km/hRainLight Rain
6:20 AM25 °C25 °C100 %1003 hPa12.9 kmNW (320°)16.7 km/hScattered Clouds
6:58 AM25.3 °C24.3 °C94 %999 hPa16.1 kmWNW (300°)13 km/h0.51 mmClear
7:58 AM26 °C25.1 °C95 %999.7 hPa16.1 kmWNW (300°)13 km/hPartly Cloudy
8:58 AM27.3 °C25.2 °C88 %1000 hPa16.1 kmWNW (300°)16.7 km/hPartly Cloudy
9:10 AM28 °C26 °C89 %1004.1 hPa16.1 kmWNW (300°)16.7 km/hLight Drizzle
9:20 AM28 °C25 °C84 %1004.1 hPa16.1 kmWNW (290°)18.5 km/hPartly Cloudy
9:58 AM26.2 °C22.7 °C81 %999.7 hPa16.1 kmWNW (300°)20.4 km/h0 mmScattered Clouds
10:07 AM28 °C26 °C89 %1003.7 hPa14.5 kmNW (320°)24.1 km/hRainRain
10:19 AM27 °C25 °C89 %1003.7 hPa16.1 kmNW (320°)18.5 km/hScattered Clouds
10:54 AM28 °C25 °C84 %1003.7 hPa16.1 kmWNW (300°)16.7 km/hMostly Cloudy
10:58 AM27.8 °C25.1 °C85 %999.7 hPa16.1 kmNW (310°)20.4 km/h0 mmMostly Cloudy
11:03 AM28 °C25 °C84 %1003.7 hPa16.1 kmWNW (300°)18.5 km/hMostly Cloudy
11:08 AM28 °C25 °C84 %1003.7 hPa16.1 kmWNW (300°)18.5 km/hMostly Cloudy
11:58 AM28.7 °C24.9 °C80 %998.6 hPa16.1 kmWest (280°)20.4 km/hScattered Clouds
12:06 PM29 °C25 °C79 %1002.7 hPa16.1 kmNW (310°)20.4 km/hLight Drizzle
12:16 PM29 °C25 °C79 %1002.4 hPa16.1 kmNNW (340°)24.1 km/hMostly Cloudy
12:21 PM29 °C25 °C79 %1002.4 hPa16.1 kmNNW (340°)22.2 km/hOvercast
12:26 PM30 °C25 °C74 %1002.4 hPa16.1 kmNNW (340°)24.1 km/hOvercast
12:36 PM29 °C25 °C79 %1002.4 hPa16.1 kmNNW (340°)24.1 km/hOvercast
12:41 PM29 °C25 °C79 %1002.4 hPa16.1 kmNNW (330°)24.1 km/hOvercast
12:58 PM29.7 °C24.7 °C74 %998 hPa16.1 kmNNW (330°)22.2 km/h0 mmMostly Cloudy
1:00 PM30 °C25 °C74 %1002 hPa16.1 kmNNW (330°)24.1 km/hRainLight Rain
1:09 PM29 °C25 °C79 %1002 hPa16.1 kmNNW (340°)24.1 km/hMostly Cloudy
1:14 PM29 °C24 °C74 %1001.7 hPa16.1 kmNNW (330°)20.4 km/hScattered Clouds
1:29 PM29 °C26 °C84 %1001.7 hPa16.1 kmNNW (340°)27.8 km/hLight Drizzle
1:37 PM29 °C25 °C79 %1001.4 hPa16.1 kmNNW (340°)24.1 km/hPartly Cloudy
1:58 PM28.6 °C24.7 °C79 %997.3 hPa16.1 kmNNW (340°)25.9 km/h0 mmScattered Clouds
2:21 PM29 °C25 °C79 %1001 hPa16.1 kmNNW (340°)25.9 km/hRainLight Rain
2:31 PM29 °C25 °C79 %1001 hPa16.1 kmNNW (330°)25.9 km/h33.3 km/hScattered Clouds
2:52 PM29 °C25 °C79 %1001 hPa16.1 kmNNW (340°)20.4 km/hLight Drizzle
2:57 PM29 °C26 °C84 %1001 hPa16.1 kmNNW (330°)24.1 km/h33.3 km/hRainRain
2:58 PM29.2 °C25.4 °C80 %997 hPa16.1 kmNNW (330°)27.8 km/h35.2 km/h0 mmRainRain
3:03 PM29 °C25 °C79 %1001 hPa16.1 kmNNW (340°)27.8 km/h35.2 km/hRainLight Rain
3:13 PM29 °C25 °C79 %1001 hPa11.3 kmNW (310°)29.6 km/h35.2 km/hRainLight Rain
3:22 PM29 °C25 °C79 %1001 hPa14.5 kmNNW (330°)25.9 km/hMostly Cloudy
3:27 PM29 °C25 °C79 %1001 hPa16.1 kmNNW (330°)24.1 km/hMostly Cloudy
3:37 PM30 °C25 °C74 %1000.7 hPa16.1 kmNW (320°)24.1 km/hScattered Clouds
3:58 PM29.6 °C24.6 °C74 %997 hPa16.1 kmNNW (330°)22.2 km/h0 mmScattered Clouds
4:13 PM28 °C25 °C84 %1001 hPa16.1 kmNW (320°)22.2 km/h33.3 km/hMostly Cloudy
4:23 PM28 °C25 °C84 %1001 hPa16.1 kmNW (320°)24.1 km/h33.3 km/hScattered Clouds
4:25 PM28 °C25 °C84 %1001 hPa16.1 kmNW (320°)22.2 km/hLight Drizzle
4:40 PM27 °C25 °C89 %1001.4 hPa16.1 kmNW (310°)22.2 km/hLight Drizzle
4:43 PM27 °C25 °C89 %1001.4 hPa16.1 kmNW (310°)18.5 km/hMostly Cloudy
4:58 PM27.5 °C24.7 °C85 %997.3 hPa16.1 kmNW (310°)22.2 km/h0 mmMostly Cloudy
5:02 PM28 °C25 °C84 %1001.4 hPa16.1 kmNW (310°)25.9 km/hLight Drizzle
5:11 PM27 °C25 °C89 %1001.4 hPa16.1 kmNW (320°)22.2 km/hScattered Clouds
5:19 PM27 °C25 °C89 %1001.4 hPa16.1 kmNW (310°)24.1 km/hRainLight Rain
5:24 PM27 °C25 °C89 %1001.4 hPa16.1 kmNW (320°)20.4 km/hRainLight Rain
5:29 PM27 °C25 °C89 %1001.4 hPa16.1 kmNW (310°)20.4 km/hRainLight Rain
5:32 PM27 °C25 °C89 %1001.4 hPa16.1 kmNW (310°)20.4 km/hMostly Cloudy
5:47 PM27 °C25 °C89 %1001.4 hPa16.1 kmNW (320°)25.9 km/hLight Drizzle
5:58 PM26.4 °C24.8 °C91 %997.6 hPa16.1 kmNW (310°)20.4 km/h0 mmRainLight Rain
5:59 PM26 °C25 °C94 %1001.7 hPa16.1 kmNW (310°)22.2 km/hMostly Cloudy
6:04 PM26 °C25 °C94 %1001.7 hPa16.1 kmNW (310°)24.1 km/hScattered Clouds
6:44 PM26 °C25 °C94 %1002 hPa16.1 kmNW (310°)24.1 km/hMostly Cloudy
6:58 PM26.4 °C24.8 °C91 %998.3 hPa16.1 kmNW (320°)20.4 km/h0 mmMostly Cloudy
7:29 PM27 °C25 °C89 %1002.7 hPa16.1 kmNW (320°)22.2 km/hRainRain
7:42 PM26 °C25 °C94 %1002.4 hPa16.1 kmNW (320°)18.5 km/hMostly Cloudy
7:57 PM26 °C25 °C94 %1002.7 hPa16.1 kmNW (320°)20.4 km/h33.3 km/hScattered Clouds
7:58 PM26 °C25 °C94 %998.6 hPa16.1 kmNW (320°)18.5 km/h33.3 km/h0.25 mmScattered Clouds
8:18 PM26 °C25 °C94 %1003 hPa16.1 kmNW (320°)18.5 km/hMostly Cloudy
8:23 PM26 °C25 °C94 %1003 hPa16.1 kmNW (320°)18.5 km/hScattered Clouds
8:28 PM26 °C25 °C94 %1003 hPa14.5 kmNNW (340°)24.1 km/hMostly Cloudy
8:29 PM26 °C25 °C94 %1003 hPa12.9 kmNNW (340°)24.1 km/hRainLight Rain
8:34 PM26 °C25 °C94 %1003 hPa9.7 kmNW (310°)24.1 km/hRainLight Rain
8:39 PM25 °C24 °C94 %1003.4 hPa11.3 kmNW (320°)14.8 km/hRainLight Rain
8:40 PM25 °C24 °C94 %1003 hPa12.9 kmNW (320°)14.8 km/hMostly Cloudy
8:45 PM25 °C23 °C89 %1003.4 hPa16.1 kmNW (320°)22.2 km/hRainLight Rain
8:58 PM25.1 °C23.9 °C93 %999.3 hPa16.1 kmNW (310°)18.5 km/h1.27 mmRainLight Rain
9:00 PM26 °C25 °C94 %1003.4 hPa16.1 kmNW (310°)20.4 km/hMostly Cloudy
9:08 PM26 °C25 °C94 %1003.7 hPa16.1 kmNW (310°)20.4 km/hLight Drizzle
9:13 PM26 °C25 °C94 %1003.7 hPa16.1 kmNW (310°)22.2 km/hLight Drizzle
9:18 PM26 °C25 °C94 %1003.7 hPa16.1 kmNW (310°)24.1 km/hRainLight Rain
9:23 PM26 °C25 °C94 %1003.7 hPa14.5 kmNW (310°)27.8 km/hRainLight Rain
9:33 PM26 °C25 °C94 %1003.7 hPa9.7 kmNW (310°)24.1 km/hRainLight Rain
9:39 PM26 °C25 °C94 %1003.7 hPa16.1 kmNW (310°)24.1 km/hScattered Clouds
9:58 PM25.8 °C25.1 °C96 %999.7 hPa16.1 kmNW (320°)22.2 km/h1.27 mmPartly Cloudy
10:58 PM25.9 °C24.9 °C94 %999 hPa16.1 kmNNW (340°)27.8 km/h33.3 km/hMostly Cloudy
10:59 PM26 °C25 °C94 %1003 hPa16.1 kmNNW (330°)20.4 km/h33.3 km/hRainLight Rain
11:07 PM26 °C25 °C94 %1003 hPa16.1 kmNNW (330°)24.1 km/hScattered Clouds
11:12 PM26 °C25 °C94 %1003 hPa16.1 kmNorth (350°)24.1 km/hMostly Cloudy
11:17 PM26 °C25 °C94 %1003 hPa16.1 kmNNW (340°)18.5 km/hMostly Cloudy
11:22 PM26 °C25 °C94 %1003 hPa16.1 kmNNW (340°)24.1 km/hMostly Cloudy
11:27 PM26 °C25 °C94 %1003 hPa16.1 kmNorth (350°)24.1 km/hMostly Cloudy
11:47 PM26 °C25 °C94 %1002.7 hPa16.1 kmNW (320°)13 km/hMostly Cloudy
11:58 PM25.9 °C25.2 °C96 %998.6 hPa16.1 kmNW (320°)16.7 km/h0 mmMostly Cloudy
Hourly data recorded from PGUA, located 0 kilometers away from Merizo, Guam







STORIES FROM OUR PARTNERS